| time (UTC) | temp F | wind direction | speed MPH | gust MPH | rain 1hr in | rain 24hr in | rain mn in | humidity % | barometer mb |
| 20260505010426 | 46 | 160 | 0.0 | 0.0 | 0.00 | 0.00 | 0.00 | 10 | 1012.0 |
| 20260505005926 | 46 | 170 | 0.0 | 0.0 | 0.00 | 0.00 | 0.00 | 10 | 1012.0 |
| 20260505005426 | 46 | 157 | 0.0 | 0.0 | 0.00 | 0.00 | 0.00 | 10 | 1012.0 |
| 20260505004926 | 46 | 158 | 0.0 | 0.0 | 0.00 | 0.00 | 0.00 | 10 | 1012.0 |
| 20260505004426 | 46 | 163 | 0.0 | 0.0 | 0.00 | 0.00 | 0.00 | 10 | 1012.0 |
| 20260505003926 | 46 | 163 | 0.0 | 0.0 | 0.00 | 0.00 | 0.00 | 10 | 1012.0 |
| 20260505002926 | 46 | 182 | 0.0 | 0.0 | 0.00 | 0.00 | 0.00 | 10 | 1012.0 |
| 20260505002426 | 46 | 181 | 0.0 | 0.0 | 0.00 | 0.00 | 0.00 | 10 | 1012.0 |
| 20260505001926 | 46 | 180 | 0.0 | 0.0 | 0.00 | 0.00 | 0.00 | 10 | 1012.0 |
| 20260505001426 | 46 | 169 | 0.0 | 0.0 | 0.00 | 0.00 | 0.00 | 10 | 1013.0 |
| 20260505000926 | 47 | 169 | 0.0 | 0.0 | 0.00 | 0.00 | 0.00 | 10 | 1013.0 |
| 20260505000428 | 47 | 182 | 0.0 | 0.0 | 0.00 | 0.00 | 0.00 | 10 | 1013.0 |
| 20260504235926 | 47 | 181 | 0.0 | 0.0 | 0.00 | 0.00 | 0.00 | 10 | 1013.0 |
| 20260504235426 | 47 | 157 | 0.0 | 0.0 | 0.00 | 0.00 | 0.00 | 10 | 1013.0 |
| 20260504234926 | 47 | 182 | 0.0 | 0.0 | 0.00 | 0.00 | 0.00 | 10 | 1013.0 |
| 20260504234426 | 47 | 170 | 0.0 | 0.0 | 0.00 | 0.00 | 0.00 | 10 | 1013.0 |
| 20260504233926 | 47 | 182 | 0.0 | 0.0 | 0.00 | 0.00 | 0.00 | 10 | 1013.0 |
| 20260504233426 | 47 | 180 | 0.0 | 0.0 | 0.00 | 0.00 | 0.00 | 10 | 1013.0 |
| 20260504232926 | 47 | 182 | 0.0 | 0.0 | 0.00 | 0.00 | 0.00 | 10 | 1013.0 |
| 20260504232426 | 47 | 156 | 0.0 | 0.0 | 0.00 | 0.00 | 0.00 | 10 | 1013.0 |
| 20260504231926 | 47 | 178 | 0.0 | 0.0 | 0.00 | 0.00 | 0.00 | 10 | 1013.0 |
| 20260504231426 | 47 | 156 | 0.0 | 0.0 | 0.00 | 0.00 | 0.00 | 10 | 1013.0 |
| 20260504230926 | 47 | 181 | 0.0 | 0.0 | 0.00 | 0.00 | 0.00 | 10 | 1013.0 |
| 20260504230426 | 47 | 163 | 0.0 | 0.0 | 0.00 | 0.00 | 0.00 | 10 | 1013.0 |
| 20260504225926 | 47 | 173 | 0.0 | 0.0 | 0.00 | 0.00 | 0.00 | 10 | 1013.0 |
| 20260504225426 | 47 | 182 | 0.0 | 0.0 | 0.00 | 0.00 | 0.00 | 10 | 1013.0 |
| 20260504224926 | 47 | 179 | 0.0 | 0.0 | 0.00 | 0.00 | 0.00 | 10 | 1013.0 |
| 20260504224426 | 47 | 181 | 0.0 | 0.0 | 0.00 | 0.00 | 0.00 | 10 | 1013.0 |
| 20260504223926 | 47 | 181 | 0.0 | 0.0 | 0.00 | 0.00 | 0.00 | 10 | 1013.0 |
| 20260504223426 | 47 | 156 | 0.0 | 0.0 | 0.00 | 0.00 | 0.00 | 10 | 1013.0 |
| 20260504222926 | 48 | 160 | 0.0 | 0.0 | 0.00 | 0.00 | 0.00 | 10 | 1013.0 |
| 20260504222426 | 48 | 174 | 0.0 | 0.0 | 0.00 | 0.00 | 0.00 | 10 | 1013.0 |
| 20260504221926 | 48 | 166 | 0.0 | 0.0 | 0.00 | 0.00 | 0.00 | 10 | 1013.0 |
| 20260504221426 | 48 | 181 | 0.0 | 0.0 | 0.00 | 0.00 | 0.00 | 10 | 1013.0 |
| 20260504220926 | 47 | 155 | 0.0 | 0.0 | 0.00 | 0.00 | 0.00 | 10 | 1013.0 |
| 20260504220426 | 47 | 161 | 0.0 | 0.0 | 0.00 | 0.00 | 0.00 | 10 | 1013.0 |
| 20260504215927 | 47 | 156 | 0.0 | 0.0 | 0.00 | 0.00 | 0.00 | 10 | 1013.0 |
| 20260504215426 | 47 | 180 | 0.0 | 0.0 | 0.00 | 0.00 | 0.00 | 11 | 1013.0 |
| 20260504214926 | 47 | 156 | 0.0 | 0.0 | 0.00 | 0.00 | 0.00 | 11 | 1013.0 |
| 20260504214426 | 47 | 167 | 0.0 | 0.0 | 0.00 | 0.00 | 0.00 | 11 | 1013.0 |
| 20260504213926 | 47 | 175 | 0.0 | 0.0 | 0.00 | 0.00 | 0.00 | 14 | 1013.0 |
| 20260504213426 | 47 | 180 | 0.0 | 0.0 | 0.00 | 0.00 | 0.00 | 14 | 1013.0 |
| 20260504212926 | 47 | 162 | 0.0 | 0.0 | 0.00 | 0.00 | 0.00 | 14 | 1013.0 |
| 20260504211926 | 47 | 179 | 0.0 | 0.0 | 0.00 | 0.00 | 0.00 | 14 | 1013.0 |
| 20260504211426 | 47 | 160 | 0.0 | 0.0 | 0.00 | 0.00 | 0.00 | 14 | 1013.0 |
| 20260504210926 | 47 | 182 | 0.0 | 0.0 | 0.00 | 0.00 | 0.00 | 14 | 1013.0 |
| 20260504205926 | 47 | 182 | 0.0 | 0.0 | 0.00 | 0.00 | 0.00 | 14 | 1013.0 |
| 20260504205426 | 47 | 158 | 0.0 | 0.0 | 0.00 | 0.00 | 0.00 | 14 | 1013.0 |
| 20260504204926 | 47 | 171 | 0.0 | 0.0 | 0.00 | 0.00 | 0.00 | 14 | 1013.0 |
| 20260504204426 | 47 | 170 | 0.0 | 0.0 | 0.00 | 0.00 | 0.00 | 14 | 1013.0 |
| 20260504203926 | 47 | 169 | 0.0 | 0.0 | 0.00 | 0.00 | 0.00 | 14 | 1013.0 |
| 20260504203425 | 47 | 157 | 0.0 | 0.0 | 0.00 | 0.00 | 0.00 | 14 | 1013.0 |
| 20260504202926 | 48 | 178 | 0.0 | 0.0 | 0.00 | 0.00 | 0.00 | 16 | 1013.0 |
| 20260504202426 | 48 | 182 | 0.0 | 0.0 | 0.00 | 0.00 | 0.00 | 16 | 1013.0 |
| 20260504201926 | 48 | 163 | 0.0 | 0.0 | 0.00 | 0.00 | 0.00 | 16 | 1013.0 |
| 20260504201426 | 48 | 161 | 0.0 | 0.0 | 0.00 | 0.00 | 0.00 | 16 | 1014.0 |
| 20260504200926 | 48 | 167 | 0.0 | 0.0 | 0.00 | 0.00 | 0.00 | 16 | 1014.0 |
| 20260504200425 | 48 | 160 | 0.0 | 0.0 | 0.00 | 0.00 | 0.00 | 16 | 1014.0 |
| 20260504195926 | 48 | 160 | 0.0 | 0.0 | 0.00 | 0.00 | 0.00 | 16 | 1014.0 |
| 20260504195426 | 48 | 186 | 0.0 | 0.0 | 0.00 | 0.00 | 0.00 | 16 | 1014.0 |
| 20260504194926 | 48 | 161 | 0.0 | 0.0 | 0.00 | 0.00 | 0.00 | 16 | 1014.0 |
| 20260504194426 | 48 | 184 | 0.0 | 0.0 | 0.00 | 0.00 | 0.00 | 16 | 1014.0 |
| 20260504193927 | 48 | 177 | 0.0 | 0.0 | 0.00 | 0.00 | 0.00 | 16 | 1014.0 |
| 20260504193426 | 49 | 187 | 0.0 | 0.0 | 0.00 | 0.00 | 0.00 | 16 | 1014.0 |
| 20260504192926 | 49 | 187 | 0.0 | 0.0 | 0.00 | 0.00 | 0.00 | 16 | 1013.0 |
| 20260504192425 | 49 | 177 | 0.0 | 0.0 | 0.00 | 0.00 | 0.00 | 16 | 1013.0 |
| 20260504191926 | 49 | 185 | 0.0 | 0.0 | 0.00 | 0.00 | 0.00 | 16 | 1013.0 |
| 20260504191426 | 49 | 185 | 0.0 | 0.0 | 0.00 | 0.00 | 0.00 | 14 | 1013.0 |
| 20260504190926 | 49 | 184 | 0.0 | 0.0 | 0.00 | 0.00 | 0.00 | 14 | 1013.0 |
| 20260504190425 | 50 | 168 | 0.0 | 0.0 | 0.00 | 0.00 | 0.00 | 14 | 1013.0 |
| 20260504185926 | 50 | 166 | 0.0 | 0.0 | 0.00 | 0.00 | 0.00 | 14 | 1013.0 |
| 20260504185426 | 50 | 173 | 0.0 | 0.0 | 0.00 | 0.00 | 0.00 | 14 | 1013.0 |
| 20260504184925 | 50 | 181 | 0.0 | 0.0 | 0.00 | 0.00 | 0.00 | 11 | 1013.0 |
| 20260504184425 | 50 | 170 | 0.0 | 0.0 | 0.00 | 0.00 | 0.00 | 11 | 1013.0 |
| 20260504183925 | 50 | 181 | 0.0 | 0.0 | 0.00 | 0.00 | 0.00 | 11 | 1013.0 |
| 20260504183427 | 51 | 190 | 0.0 | 0.0 | 0.00 | 0.00 | 0.00 | 11 | 1013.0 |
| 20260504182925 | 51 | 165 | 0.0 | 0.0 | 0.00 | 0.00 | 0.00 | 11 | 1013.0 |
| 20260504182426 | 52 | 184 | 0.0 | 0.0 | 0.00 | 0.00 | 0.00 | 11 | 1013.0 |
| 20260504181925 | 52 | 178 | 0.0 | 0.0 | 0.00 | 0.00 | 0.00 | 11 | 1013.0 |
| 20260504181425 | 53 | 171 | 0.0 | 0.0 | 0.00 | 0.00 | 0.00 | 10 | 1013.0 |
| 20260504180925 | 53 | 173 | 0.0 | 0.0 | 0.00 | 0.00 | 0.00 | 10 | 1013.0 |
| 20260504180425 | 55 | 165 | 0.0 | 0.0 | 0.00 | 0.00 | 0.00 | 10 | 1013.0 |
| 20260504175925 | 56 | 179 | 0.0 | 0.0 | 0.00 | 0.00 | 0.00 | 10 | 1013.0 |
| 20260504175425 | 57 | 181 | 0.0 | 0.0 | 0.00 | 0.00 | 0.00 | 10 | 1013.0 |
| 20260504174925 | 58 | 174 | 0.0 | 0.0 | 0.00 | 0.00 | 0.00 | 10 | 1013.0 |
| 20260504174425 | 59 | 164 | 0.0 | 0.0 | 0.00 | 0.00 | 0.00 | 10 | 1013.0 |
| 20260504173925 | 60 | 164 | 0.0 | 0.0 | 0.00 | 0.00 | 0.00 | 10 | 1013.0 |
| 20260504173425 | 60 | 163 | 0.0 | 0.0 | 0.00 | 0.00 | 0.00 | 11 | 1013.0 |
| 20260504172925 | 61 | 164 | 0.0 | 0.0 | 0.00 | 0.00 | 0.00 | 11 | 1013.0 |
| 20260504172425 | 62 | 185 | 0.0 | 0.0 | 0.00 | 0.00 | 0.00 | 11 | 1013.0 |
| 20260504171925 | 63 | 182 | 0.0 | 0.0 | 0.00 | 0.00 | 0.00 | 10 | 1013.0 |
| 20260504171425 | 63 | 182 | 0.0 | 0.0 | 0.00 | 0.00 | 0.00 | 10 | 1013.0 |
| 20260504170925 | 62 | 176 | 0.0 | 0.0 | 0.00 | 0.00 | 0.00 | 10 | 1013.0 |
| 20260504170425 | 62 | 173 | 0.0 | 0.0 | 0.00 | 0.00 | 0.00 | 10 | 1013.0 |
| 20260504160426 | 64 | 158 | 0.0 | 0.0 | 0.00 | 0.00 | 0.00 | 13 | 1013.0 |
| 20260504150925 | 61 | 160 | 0.0 | 0.0 | 0.00 | 0.00 | 0.00 | 16 | 1013.0 |
| 20260504150425 | 62 | 173 | 0.0 | 0.0 | 0.00 | 0.00 | 0.00 | 16 | 1013.0 |
| 20260504140925 | 60 | 173 | 0.0 | 0.0 | 0.00 | 0.00 | 0.00 | 14 | 1013.0 |
| 20260504140425 | 60 | 162 | 0.0 | 0.0 | 0.00 | 0.00 | 0.00 | 14 | 1013.0 |
| 20260504130425 | 58 | 177 | 0.0 | 0.0 | 0.00 | 0.00 | 0.00 | 14 | 1014.0 |
| 20260504110425 | 59 | 186 | 0.0 | 0.0 | 0.00 | 0.00 | 0.00 | 10 | 1014.0 |
| 20260504100425 | 57 | 173 | 0.0 | 0.0 | 0.00 | 0.00 | 0.00 | 10 | 1014.0 |
| 20260504081925 | 55 | 179 | 0.0 | 0.0 | 0.00 | 0.00 | 0.00 | 12 | 1014.0 |
| 20260504081425 | 55 | 186 | 0.0 | 0.0 | 0.00 | 0.00 | 0.00 | 12 | 1014.0 |
| 20260504080925 | 55 | 186 | 0.0 | 0.0 | 0.00 | 0.00 | 0.00 | 12 | 1014.0 |
| 20260504080425 | 55 | 168 | 0.0 | 0.0 | 0.00 | 0.00 | 0.00 | 12 | 1014.0 |
| 20260504050425 | 43 | 185 | 0.0 | 0.0 | 0.00 | 0.00 | 0.00 | 10 | 1013.0 |
| 20260504045925 | 42 | 176 | 0.0 | 0.0 | 0.00 | 0.00 | 0.00 | 10 | 1013.0 |
| 20260504045425 | 42 | 187 | 0.0 | 0.0 | 0.00 | 0.00 | 0.00 | 10 | 1013.0 |
| 20260504044925 | 42 | 174 | 0.0 | 0.0 | 0.00 | 0.00 | 0.00 | 10 | 1013.0 |
| 20260504044425 | 42 | 187 | 0.0 | 0.0 | 0.00 | 0.00 | 0.00 | 10 | 1013.0 |
| 20260504043925 | 42 | 173 | 0.0 | 0.0 | 0.00 | 0.00 | 0.00 | 10 | 1013.0 |
| 20260504043425 | 42 | 184 | 0.0 | 0.0 | 0.00 | 0.00 | 0.00 | 10 | 1013.0 |
| 20260504042925 | 41 | 161 | 0.0 | 0.0 | 0.00 | 0.00 | 0.00 | 10 | 1013.0 |
| 20260504042425 | 41 | 170 | 0.0 | 0.0 | 0.00 | 0.00 | 0.00 | 10 | 1013.0 |
| 20260504041925 | 41 | 162 | 0.0 | 0.0 | 0.00 | 0.00 | 0.00 | 10 | 1013.0 |
| 20260504041425 | 41 | 173 | 0.0 | 0.0 | 0.00 | 0.00 | 0.00 | 10 | 1013.0 |
| 20260504040925 | 41 | 162 | 0.0 | 0.0 | 0.00 | 0.00 | 0.00 | 10 | 1013.0 |
| 20260504040425 | 41 | 165 | 0.0 | 0.0 | 0.00 | 0.00 | 0.00 | 10 | 1013.0 |
| 20260504035925 | 41 | 161 | 0.0 | 0.0 | 0.00 | 0.00 | 0.00 | 10 | 1013.0 |
| 20260504035425 | 41 | 161 | 0.0 | 0.0 | 0.00 | 0.00 | 0.00 | 10 | 1013.0 |
| 20260504034925 | 41 | 161 | 0.0 | 0.0 | 0.00 | 0.00 | 0.00 | 10 | 1013.0 |
| 20260504033925 | 41 | 160 | 0.0 | 0.0 | 0.00 | 0.00 | 0.00 | 10 | 1013.0 |
| 20260504033425 | 41 | 166 | 0.0 | 0.0 | 0.00 | 0.00 | 0.00 | 10 | 1013.0 |
| 20260504032925 | 41 | 185 | 0.0 | 0.0 | 0.00 | 0.00 | 0.00 | 10 | 1013.0 |
| 20260504032425 | 41 | 161 | 0.0 | 0.0 | 0.00 | 0.00 | 0.00 | 10 | 1013.0 |
| 20260504031925 | 41 | 160 | 0.0 | 0.0 | 0.00 | 0.00 | 0.00 | 10 | 1013.0 |
| 20260504031425 | 41 | 161 | 0.0 | 0.0 | 0.00 | 0.00 | 0.00 | 10 | 1013.0 |
| 20260504030925 | 41 | 181 | 0.0 | 0.0 | 0.00 | 0.00 | 0.00 | 10 | 1013.0 |
| 20260504030425 | 41 | 177 | 0.0 | 0.0 | 0.00 | 0.00 | 0.00 | 10 | 1013.0 |
| 20260504025925 | 41 | 162 | 0.0 | 0.0 | 0.00 | 0.00 | 0.00 | 10 | 1013.0 |
| 20260504025425 | 41 | 185 | 0.0 | 0.0 | 0.00 | 0.00 | 0.00 | 10 | 1013.0 |
| 20260504024925 | 41 | 172 | 0.0 | 0.0 | 0.00 | 0.00 | 0.00 | 10 | 1013.0 |
| 20260504024425 | 41 | 180 | 0.0 | 0.0 | 0.00 | 0.00 | 0.00 | 10 | 1013.0 |
| 20260504023925 | 41 | 181 | 0.0 | 0.0 | 0.00 | 0.00 | 0.00 | 10 | 1013.0 |
| 20260504023425 | 41 | 186 | 0.0 | 0.0 | 0.00 | 0.00 | 0.00 | 10 | 1013.0 |
| 20260504022925 | 41 | 184 | 0.0 | 0.0 | 0.00 | 0.00 | 0.00 | 10 | 1013.0 |
| 20260504022426 | 41 | 177 | 0.0 | 0.0 | 0.00 | 0.00 | 0.00 | 10 | 1013.0 |
| 20260504021925 | 41 | 184 | 0.0 | 0.0 | 0.00 | 0.00 | 0.00 | 10 | 1013.0 |
| 20260504021425 | 41 | 160 | 0.0 | 0.0 | 0.00 | 0.00 | 0.00 | 10 | 1013.0 |
| 20260504020925 | 41 | 185 | 0.0 | 0.0 | 0.00 | 0.00 | 0.00 | 10 | 1013.0 |
| 20260504020425 | 41 | 162 | 0.0 | 0.0 | 0.00 | 0.00 | 0.00 | 10 | 1013.0 |
| 20260504015925 | 41 | 184 | 0.0 | 0.0 | 0.00 | 0.00 | 0.00 | 10 | 1013.0 |
| 20260504015425 | 41 | 170 | 0.0 | 0.0 | 0.00 | 0.00 | 0.00 | 10 | 1013.0 |
| 20260504014925 | 41 | 158 | 0.0 | 0.0 | 0.00 | 0.00 | 0.00 | 10 | 1013.0 |
| 20260504014425 | 41 | 159 | 0.0 | 0.0 | 0.00 | 0.00 | 0.00 | 10 | 1013.0 |
| 20260504013925 | 41 | 180 | 0.0 | 0.0 | 0.00 | 0.00 | 0.00 | 10 | 1013.0 |
| 20260504013425 | 41 | 180 | 0.0 | 0.0 | 0.00 | 0.00 | 0.00 | 10 | 1013.0 |
| 20260504012925 | 41 | 161 | 0.0 | 0.0 | 0.00 | 0.00 | 0.00 | 10 | 1013.0 |
| 20260504012425 | 41 | 161 | 0.0 | 0.0 | 0.00 | 0.00 | 0.00 | 10 | 1013.0 |
| 20260504011925 | 41 | 166 | 0.0 | 0.0 | 0.00 | 0.00 | 0.00 | 10 | 1013.0 |
| 20260504011425 | 41 | 158 | 0.0 | 0.0 | 0.00 | 0.00 | 0.00 | 10 | 1013.0 |
| 20260504010925 | 41 | 175 | 0.0 | 0.0 | 0.00 | 0.00 | 0.00 | 10 | 1013.0 |